Location: Knowlton
(51.2333°N, 1.2667°E)
Time: 09:52:14
(UTC+00:00)

Cosmos 1408 - Pass Details

Date: 18 April 2021
Orbit: 467 x 492 km, 82.6° (Epoch: 16 May)

Event Time Altitude Azimuth Distance (km) Brightness Sun altitude
Rises 20:09:57 0° 343° (NNW) 2,525 7.1 -11.1°
Reaches altitude 10° 20:12:08 10° 335° (NNW) 1,640 6.2 -11.4°
Maximum altitude 20:15:27 37° 267° (W) 743 4.0 -11.8°
Drops below altitude 10° 20:18:45 10° 198° (SSW) 1,623 5.0 -12.2°
Sets 20:20:54 0° 190° (S) 2,495 5.9 -12.5°
